{"data":{"norad_id":68643,"epoch":"2026-05-24T19:28:54.273792Z","epoch_age_seconds":98083,"freshness":"FRESH","line1":"1 68643U 26075H   26144.81173928  .00000046  00000+0  39954-4 0  9996","line2":"2 68643  88.9881 323.4019 0010910  67.6999 292.5317 13.67542554  6647","mean_motion":13.67542554,"eccentricity":0.001091,"inclination_deg":88.9881,"raan_deg":323.4019,"arg_perigee_deg":67.6999,"mean_anomaly_deg":292.5317,"bstar":3.9954e-5,"rev_number":664,"period_min":105.29836865318,"perigee_km":1000.3480428814,"apogee_km":1016.4654813703,"semimajor_km":7386.5437621258,"source":"CELESTRAK","updated_at":"2026-05-25T13:38:07.991591Z"}}